User: anonymous   Login
Location: Baix
(44.7118°N, 4.7648°E)
Time: 11:42:39
(UTC+00:00)
Language:

Meteor 1-24 Rocket - Orbit

View from above orbital plane
View from above orbital plane
View from above satellite
View from above satellite

Ground track
Ground track

The orbit data is extracted from the following two-line orbital elements,

1  8800U 76032B   20293.78220915 -.00000152 +00000-0 -89049-4 0  9998
2  8800 081.2481 109.8476 0094793 329.8111 029.7616 14.10153191290204
Epoch (UTC): 19 October 2020 18:46:22
Eccentricity: 0.0094793
inclination: 81.2481°
perigee height: 790 km
apogee height: 927 km
right ascension of ascending node: 109.8476°
argument of perigee: 329.8111°
revolutions per day: 14.10153191
mean anomaly at epoch: 29.7616°
orbit number at epoch: 29020

The dashed part of the orbit path shows where the satellite is in the earth's shadow,  

DLR